GFSGL_prec_precacc24_276.txt.gz
Total_Precipitation_Accumulation
0.00 0.00 0.00 0.00 0.00 0.00 0.00 0.00 0.00 0.00 0.00 0.00 0.00 0.00 0.00 0.00 0.04 0.05 0.08 0.21 0.33 0.50 0.65 0.77 1.02 0.89 0.76 0.45 0.22 0.18 0.13 0.01 0.00 0.01 0.02 0.03 0.04 0.16 0.13 0.09 0.03 0.04 0.01
0.00 0.00 0.00 0.00 0.00 0.00 0.00 0.00 0.00 0.00 0.00 0.00 0.00 0.00 0.00 0.01 0.06 0.18 0.18 0.43 0.87 0.64 0.56 0.65 0.80 0.71 0.61 0.49 0.32 0.15 0.07 0.00 0.00 0.01 0.01 0.03 0.05 0.13 0.03 0.01 0.01 0.00 0.00
0.00 0.00 0.01 0.03 0.04 0.01 0.00 0.00 0.00 0.00 0.00 0.00 0.02 0.05 0.12 0.19 0.23 0.41 0.55 0.34 0.87 0.86 0.68 0.63 0.61 0.53 0.56 0.32 0.26 0.11 0.02 0.00 0.00 0.00 0.01 0.01 0.03 0.05 0.04 0.01 0.01 0.00 0.00
0.00 0.00 0.01 0.03 0.07 0.07 0.06 0.06 0.13 0.17 0.15 0.33 0.27 0.29 0.28 0.24 0.21 0.32 0.22 0.26 0.71 0.92 0.71 0.37 0.46 0.37 0.46 0.29 0.10 0.10 0.01 0.00 0.00 0.00 0.00 0.01 0.01 0.01 0.09 0.12 0.09 0.02 0.01
0.08 0.11 0.15 0.18 0.17 0.26 0.28 0.30 0.28 0.34 0.34 0.32 0.27 0.28 0.23 0.20 0.25 0.39 0.18 0.23 0.73 0.84 0.41 0.27 0.44 0.33 0.43 0.14 0.03 0.06 0.01 0.00 0.00 0.00 0.00 0.00 0.01 0.01 0.04 0.06 0.26 0.34 0.15
0.38 0.32 0.32 0.29 0.26 0.29 0.28 0.35 0.29 0.16 0.11 0.03 0.09 0.11 0.12 0.12 0.64 0.34 0.19 0.27 0.62 0.66 0.47 0.31 0.53 0.40 0.15 0.10 0.01 0.03 0.02 0.00 0.00 0.00 0.00 0.00 0.01 0.01 0.00 0.01 0.04 0.18 0.31
0.33 0.41 0.37 0.27 0.33 0.43 0.43 0.34 0.21 0.09 0.06 0.04 0.07 0.12 0.16 0.49 1.02 0.52 0.42 0.27 0.46 0.66 0.53 0.44 0.49 0.23 0.05 0.02 0.00 0.01 0.01 0.00 0.00 0.00 0.00 0.00 0.01 0.01 0.01 0.01 0.01 0.05 0.13
0.11 0.11 0.16 0.19 0.13 0.12 0.10 0.08 0.07 0.05 0.06 0.07 0.09 0.30 0.48 1.13 1.07 0.74 0.54 0.46 0.70 0.66 0.51 0.58 0.39 0.25 0.08 0.02 0.00 0.00 0.00 0.00 0.00 0.00 0.00 0.00 0.00 0.00 0.00 0.00 0.01 0.01 0.01
0.07 0.09 0.03 0.03 0.03 0.03 0.04 0.04 0.06 0.07 0.08 0.15 0.31 0.61 0.56 0.91 1.27 0.75 0.69 0.62 0.62 0.78 0.54 0.41 0.19 0.12 0.02 0.00 0.00 0.00 0.00 0.00 0.00 0.00 0.00 0.00 0.00 0.00 0.00 0.00 0.01 0.01 0.01
0.01 0.02 0.01 0.02 0.02 0.02 0.05 0.07 0.08 0.07 0.04 0.10 0.31 0.48 0.55 0.62 0.89 0.96 1.13 0.92 0.68 0.49 0.34 0.20 0.16 0.10 0.01 0.00 0.00 0.00 0.00 0.00 0.00 0.00 0.00 0.00 0.00 0.00 0.00 0.00 0.00 0.01 0.01
0.00 0.00 0.01 0.01 0.01 0.02 0.04 0.06 0.07 0.03 0.06 0.08 0.27 0.53 0.69 0.72 0.89 1.10 1.17 0.75 0.54 0.40 0.26 0.23 0.26 0.26 0.04 0.01 0.01 0.01 0.00 0.00 0.00 0.00 0.00 0.00 0.00 0.00 0.00 0.00 0.00 0.00 0.01
0.00 0.00 0.00 0.00 0.01 0.01 0.01 0.02 0.03 0.09 0.12 0.12 0.51 1.05 0.83 0.54 0.94 1.28 0.78 0.46 0.44 0.19 0.21 0.19 0.13 0.16 0.12 0.14 0.12 0.14 0.02 0.00 0.00 0.00 0.00 0.00 0.00 0.00 0.00 0.00 0.00 0.00 0.01
0.00 0.00 0.00 0.00 0.00 0.01 0.02 0.01 0.03 0.09 0.15 0.18 0.25 0.49 1.18 0.85 0.71 0.81 0.50 0.35 0.36 0.24 0.17 0.13 0.07 0.02 0.00 0.01 0.00 0.00 0.00 0.00 0.00 0.00 0.00 0.00 0.00 0.00 0.00 0.00 0.00 0.00 0.01
0.00 0.00 0.00 0.00 0.00 0.00 0.00 0.00 0.01 0.06 0.06 0.04 0.09 0.13 0.16 0.16 0.11 0.26 0.20 0.21 0.28 0.24 0.17 0.14 0.12 0.07 0.03 0.02 0.02 0.01 0.01 0.00 0.00 0.00 0.00 0.00 0.00 0.00 0.00 0.00 0.00 0.00 0.00
0.00 0.00 0.00 0.00 0.00 0.00 0.00 0.00 0.00 0.01 0.08 0.08 0.05 0.05 0.08 0.11 0.21 0.24 0.18 0.14 0.13 0.15 0.16 0.14 0.08 0.07 0.07 0.07 0.07 0.11 0.08 0.05 0.01 0.00 0.00 0.00 0.00 0.00 0.00 0.00 0.00 0.00 0.00
0.00 0.00 0.00 0.00 0.00 0.01 0.01 0.01 0.04 0.03 0.03 0.06 0.07 0.02 0.07 0.09 0.15 0.21 0.16 0.15 0.19 0.20 0.14 0.16 0.16 0.19 0.20 0.19 0.13 0.13 0.12 0.09 0.05 0.04 0.01 0.00 0.00 0.00 0.00 0.00 0.00 0.00 0.00
0.01 0.00 0.00 0.00 0.00 0.01 0.03 0.03 0.02 0.04 0.05 0.05 0.05 0.03 0.03 0.05 0.07 0.14 0.20 0.22 0.18 0.22 0.15 0.14 0.20 0.26 0.27 0.27 0.21 0.16 0.13 0.08 0.04 0.03 0.03 0.03 0.01 0.00 0.00 0.00 0.00 0.00 0.00
0.01 0.00 0.00 0.00 0.00 0.01 0.02 0.04 0.03 0.02 0.03 0.03 0.03 0.02 0.01 0.01 0.02 0.04 0.06 0.12 0.17 0.15 0.14 0.27 0.19 0.22 0.28 0.36 0.32 0.35 0.27 0.15 0.07 0.04 0.03 0.04 0.04 0.02 0.00 0.00 0.00 0.00 0.00
0.13 0.07 0.01 0.00 0.00 0.01 0.03 0.05 0.06 0.05 0.04 0.05 0.04 0.05 0.04 0.01 0.01 0.02 0.03 0.02 0.04 0.05 0.15 0.22 0.12 0.37 0.28 0.37 0.38 0.42 0.48 0.31 0.24 0.18 0.10 0.05 0.05 0.04 0.03 0.01 0.00 0.00 0.00
0.03 0.03 0.02 0.00 0.00 0.00 0.02 0.08 0.11 0.10 0.09 0.07 0.05 0.05 0.02 0.02 0.00 0.01 0.02 0.01 0.02 0.03 0.05 0.12 0.15 0.37 0.35 0.29 0.44 0.43 0.54 0.56 0.39 0.24 0.13 0.08 0.05 0.06 0.04 0.01 0.01 0.02 0.00
0.00 0.00 0.00 0.00 0.00 0.00 0.01 0.03 0.07 0.10 0.10 0.10 0.08 0.09 0.10 0.04 0.01 0.03 0.02 0.02 0.01 0.02 0.02 0.03 0.05 0.10 0.16 0.22 0.22 0.20 0.25 0.27 0.32 0.25 0.16 0.14 0.12 0.08 0.08 0.07 0.07 0.07 0.04
0.00 0.00 0.00 0.00 0.00 0.00 0.01 0.01 0.02 0.04 0.05 0.10 0.08 0.07 0.10 0.04 0.04 0.08 0.05 0.02 0.01 0.02 0.03 0.03 0.04 0.05 0.06 0.11 0.16 0.17 0.25 0.26 0.25 0.27 0.19 0.13 0.10 0.10 0.08 0.06 0.05 0.09 0.06
0.00 0.00 0.00 0.00 0.00 0.01 0.01 0.03 0.05 0.05 0.05 0.06 0.10 0.07 0.05 0.06 0.08 0.13 0.17 0.08 0.04 0.05 0.09 0.11 0.12 0.09 0.08 0.06 0.05 0.07 0.11 0.22 0.30 0.23 0.21 0.25 0.19 0.13 0.11 0.07 0.07 0.07 0.07
0.00 0.00 0.00 0.00 0.01 0.01 0.03 0.05 0.08 0.11 0.11 0.09 0.09 0.11 0.07 0.06 0.07 0.09 0.11 0.12 0.10 0.10 0.10 0.09 0.09 0.09 0.09 0.09 0.07 0.05 0.06 0.10 0.14 0.22 0.35 0.38 0.31 0.25 0.19 0.15 0.07 0.05 0.08
0.00 0.00 0.00 0.01 0.01 0.02 0.06 0.08 0.09 0.13 0.15 0.14 0.14 0.15 0.13 0.13 0.14 0.16 0.14 0.12 0.10 0.11 0.10 0.08 0.09 0.07 0.08 0.08 0.08 0.08 0.17 0.19 0.10 0.17 0.21 0.26 0.27 0.21 0.15 0.16 0.11 0.05 0.04
0.00 0.00 0.00 0.01 0.01 0.02 0.06 0.09 0.12 0.15 0.16 0.17 0.17 0.19 0.18 0.17 0.18 0.20 0.20 0.17 0.15 0.16 0.16 0.13 0.12 0.12 0.07 0.05 0.10 0.20 0.24 0.16 0.16 0.20 0.12 0.22 0.30 0.28 0.24 0.16 0.09 0.06 0.04

GFSGL_prec_precacc24_279.txt.gz
Total_Precipitation_Accumulation
0.00 0.00 0.00 0.00 0.00 0.00 0.00 0.00 0.00 0.00 0.00 0.00 0.00 0.00 0.00 0.00 0.02 0.02 0.06 0.23 0.34 0.52 0.78 0.81 1.10 1.03 1.04 0.51 0.31 0.39 0.42 0.30 0.07 0.01 0.01 0.02 0.03 0.17 0.15 0.11 0.05 0.12 0.06
0.00 0.00 0.00 0.00 0.00 0.00 0.00 0.00 0.00 0.00 0.00 0.00 0.00 0.00 0.00 0.01 0.06 0.17 0.16 0.42 0.84 0.63 0.60 0.67 0.85 0.83 0.73 0.54 0.41 0.26 0.23 0.11 0.01 0.00 0.01 0.02 0.05 0.16 0.04 0.01 0.01 0.02 0.03
0.00 0.00 0.01 0.03 0.04 0.01 0.00 0.00 0.00 0.00 0.00 0.00 0.02 0.05 0.12 0.19 0.23 0.40 0.49 0.31 0.82 0.84 0.68 0.63 0.66 0.62 0.64 0.39 0.32 0.16 0.08 0.04 0.00 0.00 0.01 0.01 0.03 0.06 0.04 0.02 0.02 0.01 0.00
0.00 0.00 0.01 0.03 0.07 0.07 0.06 0.06 0.13 0.17 0.15 0.33 0.27 0.29 0.28 0.24 0.21 0.32 0.20 0.23 0.62 0.88 0.69 0.37 0.47 0.38 0.49 0.32 0.17 0.23 0.08 0.02 0.00 0.00 0.00 0.01 0.01 0.02 0.10 0.12 0.09 0.03 0.01
0.08 0.09 0.11 0.14 0.17 0.26 0.28 0.30 0.28 0.35 0.34 0.32 0.27 0.28 0.23 0.20 0.25 0.39 0.18 0.20 0.59 0.74 0.39 0.27 0.44 0.33 0.44 0.15 0.10 0.11 0.03 0.02 0.00 0.00 0.00 0.00 0.01 0.01 0.04 0.07 0.26 0.36 0.15
0.38 0.32 0.31 0.29 0.26 0.29 0.28 0.35 0.29 0.16 0.11 0.03 0.09 0.11 0.12 0.12 0.64 0.34 0.19 0.21 0.44 0.54 0.45 0.31 0.53 0.40 0.15 0.10 0.03 0.03 0.03 0.01 0.00 0.00 0.00 0.00 0.01 0.01 0.00 0.01 0.04 0.18 0.31
0.29 0.41 0.37 0.27 0.33 0.43 0.43 0.34 0.21 0.09 0.06 0.04 0.07 0.12 0.16 0.47 1.01 0.49 0.34 0.17 0.28 0.53 0.50 0.44 0.49 0.23 0.05 0.02 0.00 0.02 0.04 0.00 0.00 0.00 0.00 0.00 0.01 0.01 0.01 0.01 0.01 0.05 0.12
0.03 0.06 0.15 0.19 0.13 0.12 0.10 0.08 0.05 0.05 0.06 0.05 0.08 0.28 0.37 0.93 0.82 0.44 0.38 0.34 0.49 0.53 0.50 0.58 0.39 0.25 0.08 0.02 0.00 0.01 0.01 0.00 0.00 0.00 0.00 0.00 0.00 0.00 0.00 0.00 0.01 0.02 0.01
0.00 0.00 0.01 0.03 0.03 0.03 0.04 0.04 0.06 0.07 0.07 0.12 0.26 0.45 0.23 0.49 0.72 0.43 0.52 0.49 0.58 0.73 0.54 0.41 0.19 0.11 0.02 0.00 0.00 0.01 0.01 0.00 0.00 0.00 0.00 0.00 0.00 0.00 0.00 0.00 0.01 0.01 0.02
0.00 0.00 0.01 0.02 0.02 0.02 0.05 0.07 0.07 0.06 0.04 0.08 0.25 0.30 0.26 0.21 0.23 0.17 0.76 0.83 0.67 0.48 0.34 0.20 0.16 0.09 0.01 0.00 0.00 0.00 0.00 0.00 0.00 0.00 0.00 0.00 0.00 0.00 0.00 0.00 0.00 0.01 0.01
0.00 0.00 0.01 0.01 0.01 0.02 0.03 0.06 0.07 0.03 0.06 0.08 0.14 0.15 0.16 0.18 0.13 0.16 0.65 0.59 0.51 0.39 0.26 0.23 0.26 0.26 0.04 0.02 0.01 0.03 0.02 0.00 0.00 0.00 0.00 0.00 0.00 0.00 0.00 0.00 0.00 0.00 0.01
0.00 0.00 0.00 0.00 0.00 0.01 0.01 0.01 0.02 0.06 0.10 0.10 0.14 0.19 0.17 0.16 0.21 0.23 0.30 0.24 0.38 0.17 0.21 0.19 0.13 0.16 0.12 0.14 0.12 0.16 0.03 0.00 0.00 0.00 0.00 0.00 0.00 0.00 0.00 0.00 0.00 0.00 0.01
0.00 0.00 0.00 0.00 0.00 0.00 0.00 0.01 0.02 0.07 0.14 0.16 0.17 0.23 0.30 0.11 0.09 0.22 0.24 0.17 0.26 0.17 0.16 0.12 0.06 0.01 0.00 0.01 0.00 0.00 0.00 0.00 0.00 0.00 0.00 0.00 0.00 0.00 0.00 0.00 0.00 0.00 0.01
0.03 0.02 0.02 0.01 0.01 0.00 0.00 0.00 0.00 0.01 0.02 0.04 0.07 0.13 0.16 0.11 0.06 0.13 0.12 0.15 0.24 0.22 0.16 0.11 0.08 0.06 0.03 0.02 0.02 0.01 0.01 0.00 0.00 0.00 0.00 0.00 0.00 0.00 0.00 0.00 0.00 0.00 0.01
0.07 0.03 0.01 0.00 0.00 0.00 0.00 0.00 0.00 0.01 0.01 0.01 0.02 0.03 0.03 0.04 0.16 0.18 0.14 0.09 0.10 0.15 0.16 0.13 0.08 0.08 0.07 0.07 0.07 0.11 0.08 0.05 0.02 0.00 0.00 0.00 0.00 0.00 0.00 0.00 0.00 0.00 0.00
0.06 0.02 0.00 0.00 0.00 0.00 0.00 0.01 0.04 0.03 0.02 0.03 0.03 0.02 0.05 0.04 0.06 0.13 0.11 0.11 0.16 0.19 0.14 0.17 0.16 0.20 0.22 0.21 0.15 0.15 0.13 0.09 0.05 0.05 0.02 0.00 0.00 0.01 0.00 0.00 0.00 0.00 0.01
0.11 0.06 0.03 0.01 0.00 0.00 0.00 0.00 0.02 0.04 0.04 0.04 0.04 0.02 0.03 0.03 0.03 0.06 0.13 0.18 0.16 0.21 0.15 0.15 0.21 0.27 0.28 0.29 0.24 0.18 0.14 0.08 0.04 0.03 0.03 0.03 0.02 0.01 0.01 0.00 0.00 0.00 0.00
0.16 0.10 0.10 0.09 0.05 0.02 0.00 0.00 0.01 0.01 0.03 0.03 0.02 0.02 0.00 0.00 0.01 0.02 0.04 0.08 0.14 0.14 0.14 0.27 0.19 0.22 0.28 0.35 0.33 0.36 0.28 0.16 0.07 0.04 0.03 0.04 0.04 0.02 0.01 0.00 0.00 0.00 0.00
0.36 0.31 0.24 0.14 0.05 0.02 0.01 0.00 0.01 0.03 0.03 0.03 0.03 0.04 0.04 0.01 0.00 0.02 0.03 0.02 0.04 0.05 0.15 0.22 0.12 0.34 0.23 0.29 0.33 0.38 0.43 0.30 0.23 0.19 0.11 0.05 0.05 0.04 0.03 0.02 0.01 0.01 0.02
0.05 0.03 0.03 0.03 0.03 0.03 0.02 0.01 0.01 0.03 0.05 0.06 0.03 0.04 0.02 0.02 0.00 0.01 0.02 0.01 0.02 0.03 0.05 0.12 0.15 0.37 0.32 0.20 0.29 0.32 0.45 0.54 0.39 0.25 0.14 0.10 0.06 0.06 0.05 0.02 0.01 0.02 0.02
0.00 0.00 0.00 0.00 0.00 0.00 0.00 0.00 0.00 0.02 0.05 0.06 0.06 0.07 0.08 0.03 0.01 0.03 0.02 0.02 0.01 0.02 0.02 0.03 0.05 0.10 0.16 0.22 0.20 0.17 0.24 0.28 0.34 0.26 0.18 0.16 0.14 0.09 0.08 0.08 0.08 0.07 0.04
0.00 0.00 0.00 0.00 0.00 0.00 0.00 0.00 0.01 0.01 0.02 0.05 0.04 0.05 0.07 0.04 0.04 0.08 0.05 0.02 0.01 0.02 0.03 0.03 0.05 0.05 0.06 0.11 0.16 0.16 0.23 0.26 0.26 0.27 0.21 0.15 0.13 0.10 0.08 0.07 0.06 0.09 0.12
0.00 0.00 0.00 0.00 0.00 0.00 0.00 0.00 0.01 0.02 0.02 0.04 0.07 0.06 0.04 0.06 0.07 0.14 0.17 0.08 0.04 0.06 0.10 0.11 0.12 0.09 0.08 0.06 0.05 0.07 0.11 0.22 0.30 0.24 0.22 0.24 0.19 0.14 0.12 0.08 0.10 0.10 0.10
0.00 0.00 0.00 0.00 0.00 0.00 0.01 0.00 0.01 0.04 0.06 0.05 0.06 0.09 0.06 0.06 0.06 0.09 0.10 0.12 0.10 0.10 0.10 0.09 0.09 0.09 0.09 0.09 0.07 0.05 0.07 0.10 0.14 0.22 0.29 0.28 0.27 0.27 0.20 0.16 0.09 0.12 0.15
0.00 0.00 0.00 0.00 0.00 0.01 0.01 0.01 0.01 0.03 0.07 0.07 0.09 0.11 0.11 0.11 0.11 0.15 0.13 0.11 0.09 0.11 0.10 0.08 0.09 0.07 0.08 0.08 0.07 0.07 0.13 0.16 0.09 0.16 0.20 0.24 0.27 0.23 0.18 0.20 0.16 0.09 0.10
0.00 0.00 0.00 0.01 0.01 0.01 0.01 0.01 0.02 0.04 0.07 0.10 0.12 0.15 0.16 0.16 0.16 0.19 0.19 0.16 0.14 0.16 0.16 0.13 0.12 0.12 0.07 0.05 0.10 0.17 0.21 0.13 0.12 0.15 0.11 0.18 0.22 0.22 0.21 0.18 0.16 0.12 0.07

GFSGL_prec_precacc24_285.txt.gz
Total_Precipitation_Accumulation
0.00 0.00 0.00 0.00 0.00 0.00 0.00 0.00 0.00 0.00 0.00 0.00 0.00 0.00 0.00 0.00 0.00 0.01 0.08 0.23 0.38 0.58 1.01 0.99 1.29 1.30 1.34 0.87 0.46 0.44 0.51 0.62 0.19 0.03 0.03 0.04 0.02 0.12 0.13 0.12 0.11 0.15 0.07
0.00 0.00 0.00 0.00 0.00 0.00 0.00 0.00 0.00 0.00 0.00 0.00 0.00 0.00 0.00 0.01 0.06 0.21 0.18 0.44 0.85 0.62 0.64 0.77 0.95 1.05 0.97 0.69 0.47 0.31 0.33 0.28 0.06 0.01 0.03 0.04 0.04 0.23 0.06 0.02 0.03 0.09 0.11
0.00 0.00 0.01 0.03 0.04 0.01 0.00 0.00 0.00 0.00 0.00 0.00 0.02 0.05 0.12 0.18 0.23 0.40 0.48 0.28 0.78 0.76 0.66 0.62 0.76 0.76 0.81 0.52 0.37 0.31 0.19 0.18 0.08 0.00 0.02 0.02 0.06 0.11 0.07 0.08 0.10 0.13 0.06
0.00 0.00 0.01 0.03 0.07 0.07 0.06 0.06 0.13 0.17 0.15 0.33 0.27 0.29 0.28 0.22 0.20 0.32 0.19 0.19 0.61 0.71 0.59 0.33 0.46 0.40 0.55 0.40 0.24 0.32 0.25 0.20 0.06 0.00 0.01 0.01 0.03 0.04 0.11 0.15 0.13 0.06 0.03
0.06 0.06 0.06 0.11 0.16 0.23 0.24 0.28 0.26 0.34 0.34 0.31 0.26 0.25 0.21 0.18 0.25 0.38 0.17 0.17 0.52 0.55 0.29 0.25 0.41 0.33 0.45 0.20 0.14 0.15 0.14 0.16 0.01 0.00 0.00 0.01 0.02 0.01 0.06 0.09 0.28 0.39 0.20
0.13 0.16 0.20 0.21 0.23 0.26 0.27 0.34 0.28 0.16 0.11 0.03 0.05 0.05 0.06 0.08 0.50 0.23 0.13 0.17 0.34 0.44 0.33 0.21 0.39 0.37 0.15 0.12 0.04 0.04 0.09 0.08 0.00 0.00 0.00 0.00 0.01 0.01 0.01 0.02 0.06 0.21 0.37
0.04 0.08 0.13 0.16 0.25 0.31 0.33 0.32 0.19 0.08 0.06 0.04 0.06 0.07 0.07 0.25 0.59 0.23 0.14 0.10 0.20 0.24 0.25 0.18 0.34 0.21 0.05 0.03 0.00 0.03 0.13 0.02 0.00 0.00 0.00 0.00 0.00 0.01 0.00 0.01 0.05 0.09 0.20
0.01 0.02 0.02 0.05 0.08 0.07 0.08 0.07 0.04 0.04 0.05 0.04 0.05 0.14 0.20 0.41 0.53 0.26 0.05 0.05 0.15 0.18 0.26 0.30 0.31 0.24 0.07 0.02 0.00 0.02 0.03 0.01 0.00 0.00 0.00 0.00 0.00 0.00 0.00 0.01 0.02 0.05 0.08
0.00 0.00 0.00 0.01 0.01 0.01 0.04 0.03 0.04 0.04 0.05 0.06 0.10 0.16 0.16 0.36 0.39 0.18 0.05 0.03 0.09 0.16 0.17 0.23 0.16 0.09 0.01 0.00 0.00 0.01 0.02 0.01 0.00 0.00 0.00 0.00 0.00 0.00 0.00 0.00 0.01 0.01 0.03
0.00 0.00 0.00 0.00 0.00 0.00 0.01 0.04 0.05 0.05 0.02 0.02 0.17 0.19 0.16 0.18 0.19 0.07 0.01 0.00 0.02 0.07 0.10 0.10 0.10 0.05 0.01 0.00 0.00 0.00 0.00 0.00 0.00 0.00 0.00 0.00 0.00 0.00 0.00 0.00 0.01 0.02 0.05
0.00 0.00 0.00 0.00 0.00 0.00 0.00 0.01 0.01 0.01 0.01 0.06 0.13 0.14 0.16 0.18 0.13 0.08 0.01 0.00 0.03 0.11 0.13 0.15 0.21 0.23 0.04 0.02 0.01 0.03 0.02 0.00 0.00 0.00 0.00 0.00 0.00 0.00 0.00 0.00 0.01 0.01 0.05
0.03 0.03 0.01 0.00 0.00 0.00 0.00 0.00 0.00 0.01 0.02 0.06 0.14 0.18 0.16 0.16 0.20 0.10 0.03 0.02 0.01 0.03 0.09 0.11 0.09 0.15 0.12 0.14 0.12 0.16 0.03 0.00 0.00 0.00 0.00 0.00 0.00 0.00 0.00 0.00 0.01 0.01 0.04
0.38 0.35 0.18 0.04 0.01 0.02 0.03 0.02 0.01 0.00 0.01 0.01 0.03 0.11 0.22 0.11 0.09 0.15 0.14 0.04 0.11 0.06 0.04 0.04 0.03 0.00 0.00 0.01 0.00 0.00 0.00 0.00 0.00 0.00 0.00 0.00 0.00 0.00 0.00 0.00 0.01 0.02 0.04
0.37 0.54 0.33 0.15 0.04 0.02 0.01 0.01 0.00 0.00 0.00 0.00 0.01 0.07 0.12 0.09 0.05 0.11 0.09 0.09 0.15 0.15 0.10 0.03 0.05 0.04 0.03 0.02 0.02 0.01 0.01 0.00 0.00 0.00 0.00 0.00 0.00 0.00 0.00 0.00 0.01 0.01 0.02
0.42 0.45 0.51 0.26 0.08 0.03 0.01 0.01 0.01 0.01 0.01 0.00 0.00 0.00 0.02 0.03 0.13 0.11 0.06 0.05 0.05 0.12 0.14 0.10 0.07 0.08 0.07 0.08 0.07 0.11 0.08 0.05 0.02 0.00 0.00 0.00 0.00 0.00 0.00 0.00 0.00 0.01 0.01
0.41 0.40 0.38 0.36 0.24 0.10 0.03 0.06 0.09 0.06 0.02 0.02 0.02 0.01 0.01 0.02 0.01 0.03 0.05 0.07 0.11 0.15 0.12 0.15 0.17 0.20 0.23 0.21 0.15 0.16 0.14 0.09 0.05 0.05 0.02 0.00 0.00 0.01 0.01 0.00 0.00 0.00 0.02
0.27 0.27 0.28 0.22 0.15 0.08 0.03 0.01 0.03 0.05 0.03 0.02 0.01 0.01 0.01 0.01 0.01 0.01 0.02 0.08 0.09 0.14 0.13 0.14 0.21 0.27 0.29 0.29 0.25 0.19 0.15 0.09 0.04 0.03 0.03 0.03 0.02 0.02 0.01 0.01 0.01 0.00 0.01
0.28 0.21 0.22 0.27 0.18 0.11 0.04 0.01 0.00 0.00 0.00 0.01 0.01 0.01 0.00 0.00 0.01 0.01 0.01 0.02 0.03 0.06 0.08 0.26 0.19 0.22 0.28 0.35 0.33 0.36 0.28 0.17 0.09 0.05 0.04 0.04 0.04 0.03 0.02 0.01 0.01 0.00 0.00
0.58 0.49 0.36 0.29 0.16 0.08 0.04 0.01 0.00 0.00 0.00 0.00 0.00 0.00 0.01 0.00 0.00 0.01 0.02 0.01 0.01 0.02 0.09 0.19 0.11 0.33 0.22 0.25 0.28 0.33 0.37 0.28 0.27 0.23 0.16 0.08 0.06 0.04 0.03 0.02 0.01 0.01 0.02
0.39 0.29 0.20 0.16 0.10 0.07 0.04 0.02 0.00 0.00 0.00 0.00 0.00 0.00 0.00 0.00 0.00 0.01 0.02 0.00 0.01 0.02 0.03 0.08 0.13 0.33 0.31 0.18 0.23 0.22 0.31 0.35 0.24 0.19 0.16 0.13 0.08 0.07 0.05 0.02 0.01 0.02 0.02
0.44 0.38 0.27 0.19 0.10 0.06 0.03 0.01 0.00 0.00 0.00 0.01 0.01 0.01 0.00 0.00 0.00 0.01 0.02 0.02 0.01 0.01 0.02 0.03 0.05 0.10 0.16 0.22 0.19 0.16 0.23 0.25 0.29 0.21 0.16 0.18 0.15 0.10 0.09 0.08 0.08 0.07 0.04
0.71 0.79 0.58 0.37 0.17 0.09 0.04 0.01 0.00 0.00 0.00 0.00 0.00 0.00 0.01 0.00 0.00 0.00 0.00 0.01 0.01 0.01 0.03 0.04 0.04 0.05 0.05 0.11 0.16 0.16 0.23 0.25 0.24 0.24 0.19 0.15 0.14 0.13 0.12 0.10 0.08 0.10 0.12
0.48 0.80 0.66 0.45 0.43 0.43 0.25 0.08 0.01 0.00 0.00 0.00 0.00 0.00 0.00 0.00 0.00 0.00 0.00 0.02 0.03 0.03 0.07 0.10 0.12 0.09 0.08 0.06 0.05 0.07 0.11 0.22 0.29 0.24 0.22 0.23 0.18 0.14 0.14 0.11 0.14 0.14 0.13
0.26 0.24 0.32 0.47 0.34 0.27 0.24 0.21 0.06 0.01 0.01 0.00 0.00 0.00 0.00 0.00 0.00 0.01 0.02 0.03 0.04 0.06 0.08 0.07 0.08 0.09 0.09 0.09 0.07 0.05 0.07 0.10 0.14 0.22 0.29 0.28 0.26 0.29 0.21 0.17 0.13 0.17 0.21
0.06 0.06 0.06 0.06 0.08 0.05 0.02 0.01 0.00 0.00 0.00 0.00 0.00 0.00 0.00 0.00 0.00 0.03 0.06 0.07 0.07 0.08 0.08 0.06 0.09 0.07 0.08 0.08 0.06 0.06 0.13 0.16 0.09 0.16 0.20 0.24 0.27 0.23 0.18 0.21 0.16 0.13 0.14
0.07 0.02 0.02 0.01 0.00 0.00 0.00 0.00 0.00 0.00 0.00 0.00 0.00 0.00 0.00 0.00 0.01 0.04 0.09 0.11 0.12 0.12 0.16 0.13 0.12 0.12 0.07 0.05 0.09 0.15 0.16 0.11 0.11 0.15 0.11 0.18 0.22 0.22 0.21 0.18 0.17 0.15 0.14

GFSGL_prec_precacc24_291.txt.gz
Total_Precipitation_Accumulation
0.00 0.00 0.00 0.00 0.00 0.00 0.00 0.00 0.00 0.00 0.00 0.00 0.00 0.00 0.00 0.00 0.00 0.03 0.12 0.26 0.36 0.55 0.86 0.81 1.11 1.17 1.29 0.94 0.46 0.44 0.52 0.71 0.33 0.09 0.05 0.05 0.02 0.10 0.11 0.11 0.10 0.14 0.08
0.00 0.00 0.00 0.00 0.00 0.00 0.00 0.00 0.00 0.00 0.00 0.00 0.00 0.00 0.00 0.01 0.07 0.28 0.22 0.41 0.75 0.55 0.50 0.59 0.75 0.98 0.91 0.64 0.48 0.32 0.35 0.38 0.27 0.03 0.03 0.04 0.04 0.21 0.06 0.02 0.03 0.09 0.11
0.00 0.00 0.00 0.00 0.00 0.00 0.00 0.00 0.00 0.00 0.00 0.00 0.01 0.04 0.07 0.10 0.21 0.32 0.39 0.22 0.69 0.57 0.50 0.49 0.60 0.72 0.71 0.52 0.38 0.33 0.21 0.32 0.21 0.00 0.02 0.02 0.06 0.11 0.06 0.07 0.12 0.16 0.07
0.00 0.00 0.00 0.00 0.00 0.00 0.00 0.02 0.10 0.12 0.11 0.26 0.17 0.17 0.13 0.10 0.17 0.15 0.07 0.10 0.47 0.53 0.46 0.24 0.32 0.32 0.45 0.39 0.26 0.35 0.30 0.31 0.09 0.01 0.01 0.02 0.03 0.04 0.10 0.08 0.09 0.09 0.03
0.01 0.00 0.00 0.00 0.00 0.00 0.04 0.10 0.16 0.23 0.20 0.19 0.11 0.07 0.05 0.10 0.18 0.05 0.02 0.02 0.25 0.22 0.11 0.20 0.21 0.24 0.37 0.19 0.14 0.16 0.16 0.20 0.02 0.00 0.00 0.02 0.03 0.01 0.05 0.07 0.07 0.10 0.11
0.05 0.07 0.06 0.06 0.03 0.10 0.16 0.27 0.27 0.13 0.07 0.02 0.01 0.00 0.03 0.16 0.06 0.06 0.04 0.05 0.13 0.16 0.14 0.13 0.23 0.23 0.14 0.12 0.04 0.05 0.09 0.09 0.00 0.00 0.00 0.00 0.01 0.01 0.01 0.02 0.05 0.07 0.15
0.02 0.05 0.09 0.12 0.17 0.24 0.24 0.23 0.15 0.05 0.00 0.00 0.00 0.00 0.14 0.08 0.09 0.16 0.09 0.03 0.04 0.03 0.10 0.10 0.22 0.14 0.05 0.03 0.00 0.03 0.13 0.02 0.00 0.01 0.00 0.00 0.00 0.01 0.01 0.01 0.05 0.09 0.16
0.00 0.02 0.02 0.03 0.05 0.05 0.05 0.04 0.01 0.00 0.00 0.00 0.00 0.06 0.10 0.06 0.13 0.15 0.02 0.00 0.01 0.00 0.07 0.12 0.10 0.14 0.07 0.02 0.00 0.02 0.03 0.01 0.00 0.00 0.00 0.00 0.00 0.02 0.01 0.02 0.05 0.07 0.09
0.00 0.00 0.03 0.03 0.00 0.00 0.00 0.00 0.00 0.01 0.01 0.01 0.02 0.08 0.08 0.05 0.06 0.10 0.01 0.00 0.00 0.03 0.05 0.05 0.05 0.05 0.01 0.00 0.00 0.01 0.02 0.01 0.00 0.00 0.00 0.00 0.00 0.00 0.00 0.00 0.01 0.02 0.04
0.00 0.00 0.02 0.07 0.08 0.03 0.00 0.01 0.01 0.01 0.02 0.03 0.02 0.06 0.11 0.03 0.05 0.04 0.01 0.00 0.00 0.02 0.02 0.03 0.07 0.04 0.01 0.00 0.00 0.00 0.00 0.00 0.00 0.00 0.00 0.00 0.00 0.00 0.00 0.01 0.01 0.03 0.07
0.00 0.01 0.05 0.08 0.13 0.06 0.05 0.08 0.09 0.12 0.06 0.01 0.01 0.06 0.11 0.10 0.05 0.04 0.00 0.00 0.00 0.00 0.01 0.03 0.12 0.15 0.03 0.02 0.01 0.03 0.02 0.00 0.00 0.00 0.00 0.00 0.00 0.00 0.00 0.01 0.03 0.03 0.07
0.06 0.09 0.15 0.15 0.19 0.19 0.32 0.38 0.35 0.24 0.05 0.01 0.03 0.03 0.04 0.08 0.10 0.08 0.02 0.01 0.01 0.00 0.01 0.01 0.03 0.06 0.11 0.14 0.12 0.16 0.03 0.00 0.00 0.00 0.00 0.00 0.00 0.00 0.00 0.00 0.03 0.04 0.08
0.47 0.58 0.53 0.49 0.48 0.45 0.62 0.68 0.68 0.59 0.57 0.24 0.09 0.09 0.06 0.02 0.05 0.10 0.06 0.01 0.01 0.01 0.02 0.02 0.02 0.00 0.00 0.01 0.00 0.00 0.00 0.00 0.00 0.00 0.00 0.00 0.00 0.00 0.00 0.00 0.02 0.05 0.08
0.43 0.73 0.65 0.97 1.52 1.70 2.02 2.49 2.58 2.48 2.46 1.58 0.55 0.16 0.13 0.07 0.03 0.01 0.01 0.00 0.00 0.01 0.03 0.03 0.05 0.04 0.03 0.02 0.02 0.01 0.01 0.00 0.00 0.00 0.00 0.00 0.00 0.00 0.00 0.00 0.01 0.01 0.03
0.44 0.49 0.83 1.05 0.83 0.85 1.33 1.62 1.80 1.88 1.66 1.35 0.78 0.39 0.12 0.10 0.06 0.02 0.01 0.00 0.00 0.01 0.02 0.02 0.06 0.08 0.07 0.08 0.07 0.11 0.08 0.05 0.02 0.00 0.00 0.00 0.00 0.00 0.00 0.00 0.00 0.01 0.02
0.44 0.42 0.42 0.64 1.14 1.45 0.94 0.86 0.65 0.46 0.46 0.30 0.21 0.14 0.06 0.06 0.02 0.01 0.03 0.03 0.03 0.03 0.02 0.02 0.05 0.14 0.21 0.21 0.15 0.16 0.16 0.09 0.05 0.05 0.02 0.00 0.00 0.01 0.01 0.00 0.00 0.00 0.02
0.32 0.35 0.31 0.24 0.23 0.40 0.98 1.56 1.37 1.26 0.91 0.75 0.47 0.23 0.07 0.01 0.00 0.01 0.02 0.03 0.02 0.02 0.01 0.03 0.06 0.13 0.21 0.27 0.24 0.19 0.15 0.09 0.04 0.03 0.03 0.03 0.02 0.02 0.01 0.01 0.01 0.00 0.01
0.32 0.33 0.30 0.33 0.23 0.23 0.15 0.36 0.70 0.60 0.55 0.43 0.30 0.14 0.04 0.01 0.00 0.01 0.01 0.00 0.01 0.02 0.02 0.04 0.02 0.07 0.17 0.25 0.25 0.31 0.27 0.18 0.10 0.05 0.04 0.05 0.04 0.03 0.02 0.01 0.01 0.00 0.00
0.63 0.59 0.46 0.42 0.23 0.26 0.22 0.16 0.14 0.13 0.11 0.09 0.04 0.01 0.01 0.00 0.00 0.00 0.01 0.00 0.01 0.01 0.02 0.03 0.04 0.03 0.05 0.18 0.26 0.27 0.32 0.26 0.26 0.22 0.16 0.08 0.06 0.04 0.04 0.03 0.02 0.01 0.02
0.43 0.36 0.29 0.30 0.26 0.26 0.27 0.20 0.15 0.12 0.14 0.12 0.08 0.02 0.00 0.00 0.00 0.00 0.00 0.00 0.00 0.01 0.01 0.02 0.03 0.05 0.04 0.05 0.13 0.19 0.29 0.33 0.22 0.17 0.13 0.11 0.07 0.07 0.06 0.04 0.03 0.04 0.02
0.46 0.42 0.38 0.29 0.30 0.30 0.28 0.25 0.19 0.16 0.10 0.07 0.08 0.09 0.04 0.01 0.00 0.00 0.00 0.00 0.00 0.00 0.00 0.01 0.01 0.02 0.04 0.06 0.07 0.11 0.19 0.23 0.28 0.21 0.15 0.16 0.14 0.10 0.10 0.10 0.11 0.11 0.09
0.72 0.85 0.66 0.46 0.38 0.37 0.29 0.22 0.15 0.16 0.12 0.10 0.06 0.04 0.02 0.01 0.01 0.00 0.00 0.00 0.00 0.00 0.00 0.01 0.01 0.02 0.03 0.04 0.05 0.06 0.15 0.21 0.22 0.24 0.19 0.14 0.12 0.11 0.10 0.09 0.09 0.12 0.15
0.51 0.89 0.74 0.57 0.60 0.63 0.45 0.24 0.16 0.09 0.10 0.10 0.05 0.01 0.01 0.01 0.00 0.00 0.00 0.00 0.00 0.00 0.00 0.01 0.00 0.01 0.02 0.03 0.04 0.05 0.07 0.19 0.28 0.24 0.21 0.22 0.17 0.13 0.13 0.10 0.13 0.14 0.13
0.31 0.38 0.51 0.67 0.59 0.47 0.45 0.41 0.34 0.27 0.18 0.09 0.05 0.02 0.01 0.01 0.00 0.00 0.00 0.00 0.00 0.00 0.01 0.00 0.00 0.01 0.01 0.01 0.02 0.03 0.04 0.09 0.14 0.22 0.29 0.27 0.25 0.27 0.20 0.16 0.13 0.17 0.21
0.13 0.19 0.34 0.43 0.55 0.56 0.40 0.25 0.24 0.27 0.25 0.20 0.16 0.10 0.05 0.02 0.00 0.00 0.00 0.00 0.00 0.00 0.00 0.00 0.00 0.00 0.00 0.01 0.01 0.03 0.10 0.14 0.08 0.16 0.19 0.23 0.26 0.22 0.18 0.20 0.16 0.13 0.14
0.11 0.11 0.19 0.28 0.36 0.27 0.30 0.34 0.26 0.19 0.21 0.21 0.16 0.11 0.06 0.05 0.06 0.06 0.03 0.01 0.00 0.00 0.00 0.00 0.00 0.00 0.00 0.00 0.02 0.05 0.09 0.09 0.10 0.14 0.11 0.18 0.22 0.22 0.21 0.17 0.17 0.15 0.14